﻿測定場所 (Monitoring sites),日付 (Measurement date),時間 (Measurement time),線量率 最大値 (max) μGy/h,線量率 最小値 (min) μGy/h,線量率 平均値 (average) μGy/h,
新宿 (Shinjuku),2023-09-24,22:01～23:00,0.0397,0.0334,0.0359,
新宿 (Shinjuku),2023-09-24,21:01～22:00,0.0379,0.0329,0.0356,
新宿 (Shinjuku),2023-09-24,20:01～21:00,0.0386,0.0339,0.0358,
新宿 (Shinjuku),2023-09-24,19:01～20:00,0.0373,0.0332,0.0356,
新宿 (Shinjuku),2023-09-24,18:01～19:00,0.0372,0.0335,0.0354,
新宿 (Shinjuku),2023-09-24,17:01～18:00,0.0398,0.0328,0.0359,
新宿 (Shinjuku),2023-09-24,16:01～17:00,0.0380,0.0329,0.0356,
新宿 (Shinjuku),2023-09-24,15:01～16:00,0.0374,0.0330,0.0354,
新宿 (Shinjuku),2023-09-24,14:01～15:00,0.0381,0.0332,0.0355,
新宿 (Shinjuku),2023-09-24,13:01～14:00,0.0383,0.0334,0.0356,
新宿 (Shinjuku),2023-09-24,12:01～13:00,0.0375,0.0335,0.0357,
新宿 (Shinjuku),2023-09-24,11:01～12:00,0.0373,0.0341,0.0356,
新宿 (Shinjuku),2023-09-24,10:01～11:00,0.0379,0.0333,0.0356,
新宿 (Shinjuku),2023-09-24,09:01～10:00,0.0385,0.0337,0.0360,
新宿 (Shinjuku),2023-09-24,08:01～09:00,0.0376,0.0333,0.0359,
新宿 (Shinjuku),2023-09-24,07:01～08:00,0.0382,0.0335,0.0359,
新宿 (Shinjuku),2023-09-24,06:01～07:00,0.0373,0.0337,0.0357,
新宿 (Shinjuku),2023-09-24,05:01～06:00,0.0376,0.0330,0.0356,
新宿 (Shinjuku),2023-09-24,04:01～05:00,0.0379,0.0340,0.0358,
新宿 (Shinjuku),2023-09-24,03:01～04:00,0.0372,0.0334,0.0353,
新宿 (Shinjuku),2023-09-24,02:01～03:00,0.0377,0.0340,0.0356,
新宿 (Shinjuku),2023-09-24,01:01～02:00,0.0394,0.0339,0.0359,
新宿 (Shinjuku),2023-09-24,00:01～01:00,0.0378,0.0336,0.0357,
新宿 (Shinjuku),2023-09-23,23:01～24:00,0.0391,0.0327,0.0354,
新宿 (Shinjuku),2023-09-23,22:01～23:00,0.0388,0.0333,0.0356,
新宿 (Shinjuku),2023-09-23,21:01～22:00,0.0374,0.0330,0.0356,
新宿 (Shinjuku),2023-09-23,20:01～21:00,0.0387,0.0339,0.0360,
新宿 (Shinjuku),2023-09-23,19:01～20:00,0.0391,0.0341,0.0360,
新宿 (Shinjuku),2023-09-23,18:01～19:00,0.0391,0.0337,0.0357,
新宿 (Shinjuku),2023-09-23,17:01～18:00,0.0390,0.0339,0.0359,
新宿 (Shinjuku),2023-09-23,16:01～17:00,0.0383,0.0337,0.0356,
新宿 (Shinjuku),2023-09-23,15:01～16:00,0.0367,0.0334,0.0352,
新宿 (Shinjuku),2023-09-23,14:01～15:00,0.0376,0.0334,0.0352,
新宿 (Shinjuku),2023-09-23,13:01～14:00,0.0383,0.0339,0.0357,
新宿 (Shinjuku),2023-09-23,12:01～13:00,0.0390,0.0334,0.0356,
新宿 (Shinjuku),2023-09-23,11:01～12:00,0.0383,0.0328,0.0357,
新宿 (Shinjuku),2023-09-23,10:01～11:00,0.0400,0.0342,0.0365,
新宿 (Shinjuku),2023-09-23,09:01～10:00,0.0414,0.0340,0.0384,
新宿 (Shinjuku),2023-09-23,08:01～09:00,0.0452,0.0367,0.0410,
新宿 (Shinjuku),2023-09-23,07:01～08:00,0.0438,0.0365,0.0394,
新宿 (Shinjuku),2023-09-23,06:01～07:00,0.0429,0.0367,0.0399,
新宿 (Shinjuku),2023-09-23,05:01～06:00,0.0430,0.0340,0.0378,
新宿 (Shinjuku),2023-09-23,04:01～05:00,0.0390,0.0322,0.0355,
新宿 (Shinjuku),2023-09-23,03:01～04:00,0.0397,0.0328,0.0358,
新宿 (Shinjuku),2023-09-23,02:01～03:00,0.0404,0.0347,0.0369,
新宿 (Shinjuku),2023-09-23,01:01～02:00,0.0465,0.0360,0.0409,
新宿 (Shinjuku),2023-09-23,00:01～01:00,0.0606,0.0452,0.0524,
新宿 (Shinjuku),2023-09-22,23:01～24:00,0.0737,0.0579,0.0671,
新宿 (Shinjuku),2023-09-22,22:01～23:00,0.0753,0.0677,0.0714,
新宿 (Shinjuku),2023-09-22,21:01～22:00,0.0743,0.0531,0.0619,
新宿 (Shinjuku),2023-09-22,20:01～21:00,0.0576,0.0499,0.0535,
新宿 (Shinjuku),2023-09-22,19:01～20:00,0.0607,0.0466,0.0526,
新宿 (Shinjuku),2023-09-22,18:01～19:00,0.0651,0.0557,0.0604,
新宿 (Shinjuku),2023-09-22,17:01～18:00,0.0609,0.0452,0.0545,
新宿 (Shinjuku),2023-09-22,16:01～17:00,0.0461,0.0343,0.0380,
新宿 (Shinjuku),2023-09-22,15:01～16:00,0.0392,0.0341,0.0365,
新宿 (Shinjuku),2023-09-22,14:01～15:00,0.0375,0.0334,0.0356,
新宿 (Shinjuku),2023-09-22,13:01～14:00,0.0384,0.0340,0.0359,
新宿 (Shinjuku),2023-09-22,12:01～13:00,0.0392,0.0343,0.0361,
新宿 (Shinjuku),2023-09-22,11:01～12:00,0.0401,0.0334,0.0362,
新宿 (Shinjuku),2023-09-22,10:01～11:00,0.0403,0.0342,0.0364,
新宿 (Shinjuku),2023-09-22,09:01～10:00,0.0394,0.0338,0.0367,
新宿 (Shinjuku),2023-09-22,08:01～09:00,0.0394,0.0345,0.0362,
新宿 (Shinjuku),2023-09-22,07:01～08:00,0.0398,0.0346,0.0365,
新宿 (Shinjuku),2023-09-22,06:01～07:00,0.0421,0.0353,0.0385,
新宿 (Shinjuku),2023-09-22,05:01～06:00,0.0405,0.0348,0.0375,
新宿 (Shinjuku),2023-09-22,04:01～05:00,0.0476,0.0367,0.0413,
新宿 (Shinjuku),2023-09-22,03:01～04:00,0.0512,0.0408,0.0460,
新宿 (Shinjuku),2023-09-22,02:01～03:00,0.0511,0.0392,0.0438,
新宿 (Shinjuku),2023-09-22,01:01～02:00,0.0537,0.0438,0.0480,
新宿 (Shinjuku),2023-09-22,00:01～01:00,0.0541,0.0404,0.0485,
新宿 (Shinjuku),2023-09-21,23:01～24:00,0.0434,0.0338,0.0359,
新宿 (Shinjuku),2023-09-21,22:01～23:00,0.0372,0.0335,0.0353,
新宿 (Shinjuku),2023-09-21,21:01～22:00,0.0398,0.0325,0.0351,
新宿 (Shinjuku),2023-09-21,20:01～21:00,0.0374,0.0337,0.0352,
新宿 (Shinjuku),2023-09-21,19:01～20:00,0.0373,0.0334,0.0350,
新宿 (Shinjuku),2023-09-21,18:01～19:00,0.0392,0.0330,0.0352,
新宿 (Shinjuku),2023-09-21,17:01～18:00,0.0370,0.0330,0.0351,
新宿 (Shinjuku),2023-09-21,16:01～17:00,0.0377,0.0334,0.0355,
新宿 (Shinjuku),2023-09-21,15:01～16:00,0.0369,0.0330,0.0353,
新宿 (Shinjuku),2023-09-21,14:01～15:00,0.0375,0.0324,0.0353,
新宿 (Shinjuku),2023-09-21,13:01～14:00,0.0373,0.0332,0.0352,
新宿 (Shinjuku),2023-09-21,12:01～13:00,0.0370,0.0334,0.0350,
新宿 (Shinjuku),2023-09-21,11:01～12:00,0.0376,0.0334,0.0352,
新宿 (Shinjuku),2023-09-21,10:01～11:00,0.0371,0.0328,0.0350,
新宿 (Shinjuku),2023-09-21,09:01～10:00,0.0381,0.0336,0.0357,
新宿 (Shinjuku),2023-09-21,08:01～09:00,0.0383,0.0334,0.0358,
新宿 (Shinjuku),2023-09-21,07:01～08:00,0.0378,0.0335,0.0358,
新宿 (Shinjuku),2023-09-21,06:01～07:00,0.0395,0.0327,0.0357,
新宿 (Shinjuku),2023-09-21,05:01～06:00,0.0371,0.0334,0.0358,
新宿 (Shinjuku),2023-09-21,04:01～05:00,0.0382,0.0331,0.0358,
新宿 (Shinjuku),2023-09-21,03:01～04:00,0.0382,0.0343,0.0356,
新宿 (Shinjuku),2023-09-21,02:01～03:00,0.0383,0.0335,0.0355,
新宿 (Shinjuku),2023-09-21,01:01～02:00,0.0378,0.0333,0.0352,
新宿 (Shinjuku),2023-09-21,00:01～01:00,0.0376,0.0338,0.0354,
新宿 (Shinjuku),2023-09-20,23:01～24:00,0.0385,0.0331,0.0356,
新宿 (Shinjuku),2023-09-20,22:01～23:00,0.0376,0.0336,0.0356,
新宿 (Shinjuku),2023-09-20,21:01～22:00,0.0380,0.0336,0.0359,
新宿 (Shinjuku),2023-09-20,20:01～21:00,0.0373,0.0332,0.0355,
新宿 (Shinjuku),2023-09-20,19:01～20:00,0.0404,0.0347,0.0368,
新宿 (Shinjuku),2023-09-20,18:01～19:00,0.0441,0.0360,0.0393,
新宿 (Shinjuku),2023-09-20,17:01～18:00,0.0439,0.0343,0.0373,
新宿 (Shinjuku),2023-09-20,16:01～17:00,0.0412,0.0343,0.0363,
新宿 (Shinjuku),2023-09-20,15:01～16:00,0.0378,0.0344,0.0361,
新宿 (Shinjuku),2023-09-20,14:01～15:00,0.0381,0.0338,0.0359,
新宿 (Shinjuku),2023-09-20,13:01～14:00,0.0394,0.0340,0.0360,
新宿 (Shinjuku),2023-09-20,12:01～13:00,0.0396,0.0331,0.0359,
新宿 (Shinjuku),2023-09-20,11:01～12:00,0.0395,0.0336,0.0359,
新宿 (Shinjuku),2023-09-20,10:01～11:00,0.0378,0.0336,0.0358,
新宿 (Shinjuku),2023-09-20,09:01～10:00,0.0393,0.0320,0.0360,
新宿 (Shinjuku),2023-09-20,08:01～09:00,0.0380,0.0335,0.0361,
新宿 (Shinjuku),2023-09-20,07:01～08:00,0.0390,0.0342,0.0361,
新宿 (Shinjuku),2023-09-20,06:01～07:00,0.0398,0.0340,0.0359,
新宿 (Shinjuku),2023-09-20,05:01～06:00,0.0374,0.0342,0.0361,
新宿 (Shinjuku),2023-09-20,04:01～05:00,0.0415,0.0335,0.0362,
新宿 (Shinjuku),2023-09-20,03:01～04:00,0.0387,0.0334,0.0361,
新宿 (Shinjuku),2023-09-20,02:01～03:00,0.0374,0.0339,0.0359,
新宿 (Shinjuku),2023-09-20,01:01～02:00,0.0373,0.0334,0.0358,
新宿 (Shinjuku),2023-09-20,00:01～01:00,0.0388,0.0337,0.0360,
新宿 (Shinjuku),2023-09-19,23:01～24:00,0.0390,0.0341,0.0360,
新宿 (Shinjuku),2023-09-19,22:01～23:00,0.0373,0.0329,0.0354,
新宿 (Shinjuku),2023-09-19,21:01～22:00,0.0389,0.0338,0.0356,
新宿 (Shinjuku),2023-09-19,20:01～21:00,0.0380,0.0334,0.0354,
新宿 (Shinjuku),2023-09-19,19:01～20:00,0.0372,0.0335,0.0355,
新宿 (Shinjuku),2023-09-19,18:01～19:00,0.0374,0.0331,0.0354,
新宿 (Shinjuku),2023-09-19,17:01～18:00,0.0371,0.0325,0.0353,
新宿 (Shinjuku),2023-09-19,16:01～17:00,0.0373,0.0336,0.0354,
新宿 (Shinjuku),2023-09-19,15:01～16:00,0.0393,0.0331,0.0353,
新宿 (Shinjuku),2023-09-19,14:01～15:00,0.0375,0.0329,0.0352,
新宿 (Shinjuku),2023-09-19,13:01～14:00,0.0370,0.0334,0.0353,
新宿 (Shinjuku),2023-09-19,12:01～13:00,0.0372,0.0326,0.0354,
新宿 (Shinjuku),2023-09-19,11:01～12:00,0.0383,0.0326,0.0353,
新宿 (Shinjuku),2023-09-19,10:01～11:00,0.0372,0.0336,0.0354,
新宿 (Shinjuku),2023-09-19,09:01～10:00,0.0378,0.0327,0.0351,
新宿 (Shinjuku),2023-09-19,08:01～09:00,0.0383,0.0337,0.0355,
新宿 (Shinjuku),2023-09-19,07:01～08:00,0.0384,0.0329,0.0355,
新宿 (Shinjuku),2023-09-19,06:01～07:00,0.0384,0.0330,0.0357,
新宿 (Shinjuku),2023-09-19,05:01～06:00,0.0386,0.0336,0.0355,
新宿 (Shinjuku),2023-09-19,04:01～05:00,0.0373,0.0333,0.0353,
新宿 (Shinjuku),2023-09-19,03:01～04:00,0.0381,0.0325,0.0353,
新宿 (Shinjuku),2023-09-19,02:01～03:00,0.0380,0.0332,0.0354,
新宿 (Shinjuku),2023-09-19,01:01～02:00,0.0374,0.0329,0.0351,
新宿 (Shinjuku),2023-09-19,00:01～01:00,0.0380,0.0330,0.0354,
新宿 (Shinjuku),2023-09-18,23:01～24:00,0.0372,0.0328,0.0351,
新宿 (Shinjuku),2023-09-18,22:01～23:00,0.0372,0.0326,0.0353,
新宿 (Shinjuku),2023-09-18,21:01～22:00,0.0368,0.0331,0.0350,
新宿 (Shinjuku),2023-09-18,20:01～21:00,0.0374,0.0330,0.0353,
新宿 (Shinjuku),2023-09-18,19:01～20:00,0.0372,0.0337,0.0351,
新宿 (Shinjuku),2023-09-18,18:01～19:00,0.0375,0.0328,0.0352,
新宿 (Shinjuku),2023-09-18,17:01～18:00,0.0382,0.0341,0.0355,
新宿 (Shinjuku),2023-09-18,16:01～17:00,0.0383,0.0335,0.0352,
新宿 (Shinjuku),2023-09-18,15:01～16:00,0.0372,0.0333,0.0352,
新宿 (Shinjuku),2023-09-18,14:01～15:00,0.0378,0.0329,0.0355,
新宿 (Shinjuku),2023-09-18,13:01～14:00,0.0392,0.0332,0.0355,
新宿 (Shinjuku),2023-09-18,12:01～13:00,0.0374,0.0326,0.0352,
新宿 (Shinjuku),2023-09-18,11:01～12:00,0.0382,0.0336,0.0355,
新宿 (Shinjuku),2023-09-18,10:01～11:00,0.0387,0.0336,0.0353,
新宿 (Shinjuku),2023-09-18,09:01～10:00,0.0373,0.0333,0.0350,
新宿 (Shinjuku),2023-09-18,08:01～09:00,0.0370,0.0332,0.0353,
新宿 (Shinjuku),2023-09-18,07:01～08:00,0.0372,0.0327,0.0351,
新宿 (Shinjuku),2023-09-18,06:01～07:00,0.0372,0.0332,0.0352,
新宿 (Shinjuku),2023-09-18,05:01～06:00,0.0385,0.0335,0.0353,
新宿 (Shinjuku),2023-09-18,04:01～05:00,0.0375,0.0329,0.0351,
新宿 (Shinjuku),2023-09-18,03:01～04:00,0.0377,0.0330,0.0351,
新宿 (Shinjuku),2023-09-18,02:01～03:00,0.0380,0.0325,0.0351,
新宿 (Shinjuku),2023-09-18,01:01～02:00,0.0375,0.0326,0.0350,
新宿 (Shinjuku),2023-09-18,00:01～01:00,0.0383,0.0328,0.0351,
